Regional Weather Roundup
Issued by NWS Sioux Falls, SD

Home | Current Version | Previous Version | Graphics & Text | Print | Product List | Glossary Off
Versions: 1 2 3 4 5 6 7 8 9 10 11 12 13 14 15 16 17 18 19 20 21 22 23 24 25 26 27 28 29 30 31 32 33 34 35 36 37 38 39 40 41 42 43 44 45 46 47 48 49 50

000
ASUS43 KFSD 031510
RWRFSD

WEATHER ROUNDUP FOR SE SOUTH DAKOTA/SW MINNESOTA/NW IOWA
NATIONAL WEATHER SERVICE SIOUX FALLS SD
1000 AM CDT THU SEP 03 2015

NOTE: "FAIR" INDICATES FEW OR NO CLOUDS BELOW 12,000 FEET WITH NO
SIGNIFICANT WEATHER AND OR OBSTRUCTIONS TO VISIBILITY.


SDZ038>040-050-052>070-031600-
SOUTHEAST SOUTH DAKOTA

CITY           SKY/WX    TMP DP  RH WIND       PRES   REMARKS
BROOKINGS      SUNNY     73  68  83 SE12      29.86S
CHAMBERLAIN    SUNNY     75  69  80 SE6       29.79S
HURON          SUNNY     75  69  81 S9        29.79R
MADISON        FAIR      73  73 100 S9        29.85S
MITCHELL       SUNNY     76  70  82 SE10      29.80F
SIOUX FALLS    SUNNY     75  69  81 S8        29.85S
WINNER         FAIR      86  62  44 S8        29.79R
YANKTON        SUNNY     73  68  83 SE9       29.81S
$$

MNZ071-072-080-081-089-090-097-098-031600-
SOUTHWEST MINNESOTA

CITY           SKY/WX    TMP DP  RH WIND       PRES   REMARKS
FAIRMONT       SUNNY     75  66  73 S9        29.89S
JACKSON        SUNNY     77  72  83 S7        29.90S
LUVERNE        SUNNY     77  70  78 S8        29.87S
MARSHALL       SUNNY     73  66  78 SE8       29.87S
MONTEVIDEO     CLOUDY    73  73 100 S8        29.88S FOG
PIPESTONE      SUNNY     75  70  83 S7        29.87S
REDWOOD FALLS  PTSUNNY   73  70  90 SE7       29.87S FOG
TRACY          SUNNY     77  71  81 SE8       29.87S
WINDOM         SUNNY     77  70  78 CALM      29.88F
WORTHINGTON    SUNNY     75  68  78 S8        29.88F
$$

IAZ001>003-012>014-020>022-031-032-NEZ013-014-SDZ071-031600-
NORTHWEST IOWA

CITY           SKY/WX    TMP DP  RH WIND       PRES   REMARKS
CHEROKEE       SUNNY     77  72  85 S8        29.87S
DENISON        SUNNY     77  70  78 S8G16     29.87S
ESTHERVILLE    SUNNY     75  71  87 S8        29.89F
LE MARS        SUNNY     77  70  78 S12       29.86S
ORANGE CITY    SUNNY     75  70  83 S10       29.86F
SHELDON        SUNNY     77  70  78 S8        29.86S
SIOUX CITY     SUNNY     77  69  76 SE9       29.84S
SPENCER        SUNNY     77  70  79 S8        29.89S
STORM LAKE     SUNNY     77  72  83 S12       29.90S
$$

ABBREVIATIONS USED IN REMARKS
   TC - TEMPERATURE IN CELSIUS
  WCI - WIND CHILL INDEX
   HX - HEAT INDEX
  VSB - VISIBILITY




USA.gov is the U.S. government's official web portal to all federal, state and local government web resources and services.